STARLINK-4719 (53774 NORAD) Tracking and Keplerian Element Data

This shows tracking and keplerian element data for the satellite.

Feedback or suggestion? Click here.




ElementValue
Catalog53774
NameSTARLINK-4719
Epoch Orbit130
Epoch Day324.91667824
Epoch Year2022
RAAN292.4227
Inclination53.2165
Eccentricity0.000146
Argument of Perigee79.7724
Mean Anonmoly64.8047
Mean Motion15.08850967
Decay Rate-0.0002446
L11 53774U 22111B 22324.91667824 -.00024460 00000+0 -15235-2 0 9994
L22 53774 53.2165 292.4227 0001460 79.7724 64.8047 15.08850967 1307



Live tracking and technical data element details for STARLINK-4719 (NORAD 53774). STARLINK-4719 can be tracked NOW for your location showing map with azimuth and elevation plus other details from your city location.







IsCatalogInMostPopularTable: catalog: 53774, numindb: -1

Insert: records affected: 1


GetName: 53774 STARLINK-4719

Hit Count: inserted at: Thu, 08 Dec 2022 09:09:05 GMT